User: anonymous   Login
Location: Unspecified
(0.0000°N, 0.0000°E)
Time: 23:01:15
(UTC+00:00)
Language:

AALTO 1 - Orbit

View from above orbital plane
View from above orbital plane
View from above satellite
View from above satellite

Ground track
Ground track

The orbit data is extracted from the following two-line orbital elements,

1 42775U 17036L   24110.62577278  .00106795  00000-0  14510-2 0  9995
2 42775  97.1133 139.9541 0007131  78.0092 282.1963 15.57218103379969
Epoch (UTC): 19 April 2024 15:01:06
Eccentricity: 0.0007131
inclination: 97.1133°
perigee height: 391 km
apogee height: 400 km
right ascension of ascending node: 139.9541°
argument of perigee: 78.0092°
revolutions per day: 15.57218103
mean anomaly at epoch: 282.1963°
orbit number at epoch: 37996

The dashed part of the orbit path shows where the satellite is in the earth's shadow,  

DLR